Weather History for Dansville, NY

Change the Weather History Date:

Wednesday, October 3, 2012

  Actual Average Record
Temperature  
Mean Temperature 68 °F -  
Max Temperature 75 °F 64 °F 87 °F (1950)
Min Temperature 62 °F 43 °F 29 °F (1975)
Cooling Degree Days 4    
Growing Degree Days 18 (Base 50)    
Moisture  
Dew Point 65 °F    
Average Humidity 83    
Maximum Humidity 96    
Minimum Humidity 71    
Precipitation  
Precipitation 0.01 in - - ()
Sea Level Pressure  
Sea Level Pressure 30.05 in    
Wind  
Wind Speed 1 mph (ESE)    
Max Wind Speed 6 mph    
Max Gust Speed -    
Visibility 8 miles    
Events      
Averages and records for this station are not official NWS values.
T = Trace of Precipitation, MM = Missing Value Source: NWS Daily Summary

Daily Weather History Graph

Daily Weather History Graph

Search for Another Location

Airport:

Trip Planner

Search our weather history database for the weather conditions in past years. The results will help you decide how hot, cold, wet, or windy it might be!

Date:

Astronomy

Oct. 03, 2012 Rise Set
Actual Time 7:10 AM EDT 6:47 PM EDT
Civil Twilight 6:42 AM EDT 7:16 PM EDT
Nautical Twilight 6:09 AM EDT 7:48 PM EDT
Astronomical Twilight 5:36 AM EDT 8:21 PM EDT
Moon 8:33 PM EDT (10/3) 10:37 AM EDT (10/3)
Length of Visible Light 12h 33m
Length of Day
11h 37m
Waning Gibbous, 89% of the Moon is Illuminated
Oct 3
Waning Gibbous
Oct 8
Last Quarter
Oct 15
New
Oct 21
First Quarter
Oct 29
Full

Hourly Weather History & Observations

Time (EDT) Temp. Dew Point Humidity Pressure Visibility Wind Dir Wind Speed Gust Speed Precip Events Conditions
12:54 AM 62.1 °F - N/A% 29.97 in 5.0 mi Calm Calm - N/A   Haze
1:54 AM 63.0 °F - N/A% 29.97 in 6.0 mi Calm Calm - N/A   Haze
2:51 AM 62.6 °F - N/A% 29.95 in 5.0 mi Calm Calm - N/A   Haze
2:54 AM 62.1 °F - N/A% 29.97 in 5.0 mi Calm Calm - N/A   Haze
3:54 AM 63.0 °F - N/A% 29.98 in 7.0 mi South 3.5 mph - N/A   Overcast
4:54 AM 62.1 °F - N/A% 29.99 in 4.0 mi Calm Calm - N/A   Haze
5:54 AM 63.0 °F - N/A% 30.00 in 6.0 mi Calm Calm - N/A   Haze
6:54 AM 63.0 °F - N/A% 30.01 in 4.0 mi Calm Calm - N/A   Haze
7:54 AM 63.0 °F - N/A% 30.02 in 6.0 mi SE 5.8 mph - N/A   Haze
8:54 AM 64.0 °F - N/A% 30.04 in 10.0 mi SE 3.5 mph - N/A   Overcast
9:54 AM 68.0 °F - N/A% 30.05 in 10.0 mi SE 5.8 mph - N/A   Overcast
10:54 AM 70.0 °F 64.0 °F 81% 30.05 in 10.0 mi SE 4.6 mph - N/A   Overcast
11:54 AM 71.1 °F 64.9 °F 81% 30.05 in 10.0 mi East 3.5 mph - 0.01 in   Overcast
12:01 PM 71.6 °F 66.2 °F 83% 30.03 in 10.0 mi Calm Calm - N/A   Overcast
12:22 PM 73.4 °F 66.2 °F 78% 30.03 in 10.0 mi Calm Calm - N/A   Overcast
12:54 PM 73.9 °F 64.9 °F 73% 30.04 in 10.0 mi NNE 4.6 mph - N/A   Overcast
1:54 PM 73.9 °F 66.0 °F 76% 30.04 in 10.0 mi Calm Calm - N/A   Overcast
2:54 PM 75.0 °F 64.9 °F 71% 30.06 in 10.0 mi West 5.8 mph - N/A   Overcast
3:54 PM 73.9 °F 66.0 °F 76% 30.06 in 10.0 mi North 5.8 mph - N/A   Scattered Clouds
4:54 PM 75.0 °F 64.9 °F 71% 30.06 in 10.0 mi NNW 4.6 mph - N/A   Partly Cloudy
5:54 PM 73.0 °F 64.9 °F 76% 30.07 in 10.0 mi Calm Calm - N/A   Partly Cloudy
6:54 PM 71.1 °F 66.0 °F 84% 30.09 in 10.0 mi Calm Calm - N/A   Overcast
7:54 PM 70.0 °F 66.0 °F 87% 30.11 in 10.0 mi Calm Calm - N/A   Overcast
8:17 PM 69.8 °F 66.2 °F 88% 30.09 in 10.0 mi Calm Calm - N/A   Overcast
8:50 PM 69.8 °F 66.2 °F 88% 30.10 in 10.0 mi Calm Calm - N/A   Overcast
8:54 PM 69.1 °F 66.0 °F 90% 30.12 in 10.0 mi Calm Calm - N/A   Overcast
9:43 PM 68.0 °F 66.2 °F 94% 30.12 in 8.0 mi Calm Calm - N/A   Overcast
9:54 PM 68.0 °F 64.9 °F 90% 30.14 in 9.0 mi Calm Calm - N/A   Overcast
10:54 PM 66.9 °F 64.9 °F 93% 30.14 in 7.0 mi Calm Calm - N/A   Mostly Cloudy
11:54 PM 64.0 °F 63.0 °F 96% 30.15 in 6.0 mi Calm Calm - N/A   Mostly Cloudy